When you browse on this site, cookies collect data to enhance your experience and personalize the content and advertising you see.
Visit our Privacy Policy to learn more. By continuing to use the site, you agree to this use of cookies and data.
  • în România
  • Lista ţărilor
  • Pe 7 zile
  • Temperatura apei
  • Hartă satelitară
  • Meteo pe hartă
  • Widget-uri
  • user-avatar
    Intrare

    Meteo pe oră la Arnoldstein

    Astăzi, 19 Iulie, Vineri

    Timp Temperatura Precipitaţii Vânt Presiune Umiditate
    00:00 +13°C° 0 mm 1 m/s 691 mmHg 90%
    01:00 +13°C° 0 mm 1 m/s 691 mmHg 91%
    02:00 +13°C° 0.2 mm 1 m/s 691 mmHg 90%
    03:00 +13°C° 0.2 mm 1 m/s 691 mmHg 90%
    04:00 +13°C° 0.2 mm 1 m/s 691 mmHg 90%
    05:00 +14°C° 0 mm 1 m/s 692 mmHg 89%
    06:00 +15°C° 0 mm 0 m/s 692 mmHg 87%
    07:00 +19°C° 0 mm 1 m/s 693 mmHg 83%
    08:00 +21°C° 0.2 mm 1 m/s 693 mmHg 76%
    09:00 +21°C° 0.2 mm 0 m/s 693 mmHg 68%
    10:00 +23°C° 0.2 mm 0 m/s 694 mmHg 60%
    11:00 +26°C° 0.3 mm 1 m/s 694 mmHg 56%
    12:00 +26°C° 0.3 mm 1 m/s 694 mmHg 51%
    13:00 +26°C° 0 mm 2 m/s 694 mmHg 45%
    14:00 +26°C° 0.6 mm 2 m/s 693 mmHg 52%
    15:00 +25°C° 0.6 mm 1 m/s 693 mmHg 58%
    16:00 +25°C° 0.6 mm 1 m/s 693 mmHg 64%
    17:00 +23°C° 0.4 mm 1 m/s 693 mmHg 72%
    18:00 +22°C° 0.4 mm 1 m/s 693 mmHg 79%
    19:00 +20°C° 0.4 mm 1 m/s 693 mmHg 87%
    20:00 +19°C° 0 mm 1 m/s 693 mmHg 88%
    21:00 +18°C° 0 mm 1 m/s 693 mmHg 90%
    22:00 +16°C° 0 mm 1 m/s 693 mmHg 91%
    23:00 +15°C° 0 mm 1 m/s 693 mmHg 90%

    Mâine, 20 Iulie, Sâmbătă

    Timp Temperatura Precipitaţii Vânt Presiune Umiditate
    00:00 +15°C° 0 mm 1 m/s 693 mmHg 90%
    01:00 +15°C° 0 mm 1 m/s 693 mmHg 90%
    02:00 +15°C° 0 mm 1 m/s 693 mmHg 90%
    03:00 +14°C° 0 mm 1 m/s 693 mmHg 90%
    04:00 +14°C° 0 mm 1 m/s 693 mmHg 90%
    05:00 +16°C° 0 mm 1 m/s 693 mmHg 87%
    06:00 +18°C° 0 mm 1 m/s 693 mmHg 84%
    07:00 +18°C° 0 mm 0 m/s 694 mmHg 81%
    08:00 +22°C° 0 mm 1 m/s 694 mmHg 72%
    09:00 +24°C° 0 mm 1 m/s 695 mmHg 63%
    10:00 +27°C° 0 mm 1 m/s 695 mmHg 54%
    11:00 +27°C° 0 mm 1 m/s 695 mmHg 53%
    12:00 +28°C° 0 mm 2 m/s 695 mmHg 51%
    13:00 +29°C° 0 mm 2 m/s 695 mmHg 49%
    14:00 +28°C° 0 mm 2 m/s 695 mmHg 52%
    15:00 +27°C° 0 mm 2 m/s 695 mmHg 55%
    16:00 +27°C° 0 mm 2 m/s 694 mmHg 58%
    17:00 +25°C° 0.1 mm 2 m/s 694 mmHg 68%
    18:00 +24°C° 0.1 mm 2 m/s 694 mmHg 77%
    19:00 +22°C° 0.1 mm 1 m/s 694 mmHg 86%
    20:00 +21°C° 0.2 mm 1 m/s 694 mmHg 88%
    21:00 +20°C° 0.2 mm 1 m/s 695 mmHg 91%
    22:00 +19°C° 0.2 mm 1 m/s 695 mmHg 93%
    23:00 +19°C° 0 mm 1 m/s 695 mmHg 93%

    Poimâine, 21 Iulie, Duminică

    Timp Temperatura Precipitaţii Vânt Presiune Umiditate
    00:00 +18°C° 0 mm 1 m/s 695 mmHg 93%
    01:00 +18°C° 0 mm 1 m/s 695 mmHg 94%
    02:00 +18°C° 0 mm 1 m/s 695 mmHg 94%
    03:00 +18°C° 0 mm 1 m/s 695 mmHg 94%
    04:00 +18°C° 0 mm 1 m/s 694 mmHg 94%
    05:00 +19°C° 0 mm 1 m/s 695 mmHg 90%
    06:00 +20°C° 0 mm 1 m/s 695 mmHg 86%
    07:00 +20°C° 0 mm 0 m/s 695 mmHg 82%
    08:00 +22°C° 0.1 mm 0 m/s 696 mmHg 74%
    09:00 +24°C° 0.1 mm 0 m/s 697 mmHg 67%
    10:00 +26°C° 0.1 mm 0 m/s 697 mmHg 59%
    11:00 +28°C° 0.6 mm 1 m/s 697 mmHg 60%
    12:00 +28°C° 0.6 mm 1 m/s 697 mmHg 61%
    13:00 +28°C° 0.6 mm 1 m/s 697 mmHg 63%
    14:00 +27°C° 1.3 mm 1 m/s 697 mmHg 70%
    15:00 +25°C° 1.3 mm 1 m/s 697 mmHg 77%
    16:00 +24°C° 1.3 mm 2 m/s 697 mmHg 84%
    17:00 +23°C° 0.6 mm 1 m/s 697 mmHg 87%
    18:00 +22°C° 0.6 mm 1 m/s 697 mmHg 90%
    19:00 +19°C° 0.6 mm 0 m/s 697 mmHg 92%
    20:00 +18°C° 0.1 mm 0 m/s 697 mmHg 92%
    21:00 +17°C° 0.1 mm 0 m/s 697 mmHg 92%
    22:00 +18°C° 0.1 mm 1 m/s 698 mmHg 92%
    23:00 +18°C° 0 mm 1 m/s 698 mmHg 92%

    22 Iulie, Luni

    Timp Temperatura Precipitaţii Vânt Presiune Umiditate
    00:00 +18°C° 0 mm 1 m/s 697 mmHg 92%
    01:00 +16°C° 0 mm 1 m/s 697 mmHg 92%
    02:00 +16°C° 0 mm 1 m/s 697 mmHg 92%
    03:00 +16°C° 0 mm 1 m/s 697 mmHg 92%
    04:00 +16°C° 0 mm 1 m/s 697 mmHg 92%
    05:00 +18°C° 0 mm 1 m/s 697 mmHg 89%
    06:00 +19°C° 0 mm 1 m/s 698 mmHg 87%
    07:00 +21°C° 0 mm 1 m/s 698 mmHg 84%
    08:00 +22°C° 0 mm 1 m/s 699 mmHg 77%
    09:00 +24°C° 0 mm 1 m/s 699 mmHg 69%
    10:00 +26°C° 0 mm 1 m/s 699 mmHg 61%
    11:00 +27°C° 0.2 mm 1 m/s 699 mmHg 59%
    12:00 +28°C° 0.2 mm 1 m/s 699 mmHg 57%
    13:00 +29°C° 0.2 mm 1 m/s 699 mmHg 55%
    14:00 +29°C° 0.2 mm 1 m/s 699 mmHg 57%
    15:00 +28°C° 0.2 mm 1 m/s 698 mmHg 60%
    16:00 +28°C° 0.2 mm 1 m/s 698 mmHg 63%
    17:00 +26°C° 0.4 mm 1 m/s 698 mmHg 72%
    18:00 +25°C° 0.4 mm 1 m/s 698 mmHg 80%
    19:00 +21°C° 0.4 mm 0 m/s 697 mmHg 89%
    20:00 +20°C° 0.2 mm 0 m/s 697 mmHg 90%
    21:00 +21°C° 0.2 mm 1 m/s 698 mmHg 91%
    22:00 +20°C° 0.2 mm 1 m/s 698 mmHg 92%
    23:00 +19°C° 0 mm 1 m/s 697 mmHg 93%

    23 Iulie, Marţi

    Timp Temperatura Precipitaţii Vânt Presiune Umiditate
    00:00 +19°C° 0 mm 1 m/s 697 mmHg 93%
    01:00 +19°C° 0 mm 1 m/s 697 mmHg 94%
    02:00 +18°C° 0 mm 1 m/s 697 mmHg 94%
    03:00 +18°C° 0 mm 1 m/s 697 mmHg 95%
    04:00 +18°C° 0 mm 1 m/s 696 mmHg 95%
    05:00 +19°C° 0 mm 1 m/s 697 mmHg 94%
    06:00 +20°C° 0 mm 1 m/s 697 mmHg 93%
    07:00 +21°C° 0 mm 1 m/s 697 mmHg 92%
    08:00 +22°C° 0 mm 1 m/s 697 mmHg 83%
    09:00 +24°C° 0 mm 1 m/s 698 mmHg 75%
    10:00 +26°C° 0 mm 1 m/s 698 mmHg 66%
    11:00 +27°C° 0 mm 1 m/s 698 mmHg 59%
    12:00 +28°C° 0 mm 1 m/s 698 mmHg 53%
    13:00 +30°C° 0 mm 1 m/s 698 mmHg 46%
    14:00 +29°C° 0.1 mm 1 m/s 697 mmHg 47%
    15:00 +29°C° 0.1 mm 1 m/s 697 mmHg 49%
    16:00 +29°C° 0.1 mm 1 m/s 697 mmHg 50%
    17:00 +27°C° 0.1 mm 1 m/s 697 mmHg 61%
    18:00 +26°C° 0.1 mm 1 m/s 696 mmHg 72%
    19:00 +24°C° 0.1 mm 1 m/s 696 mmHg 83%
    20:00 +23°C° 0 mm 1 m/s 696 mmHg 85%
    21:00 +21°C° 0 mm 1 m/s 696 mmHg 87%
    22:00 +20°C° 0 mm 1 m/s 696 mmHg 90%
    23:00 +18°C° 0 mm 0 m/s 696 mmHg 91%

    24 Iulie, Miercuri

    Timp Temperatura Precipitaţii Vânt Presiune Umiditate
    00:00 +17°C° 0 mm 0 m/s 696 mmHg 91%
    01:00 +17°C° 0 mm 0 m/s 696 mmHg 92%
    02:00 +17°C° 0 mm 0 m/s 696 mmHg 93%
    03:00 +16°C° 0 mm 0 m/s 695 mmHg 94%
    04:00 +16°C° 0 mm 0 m/s 695 mmHg 95%
    05:00 +17°C° 0 mm 0 m/s 695 mmHg 92%
    06:00 +19°C° 0 mm 0 m/s 696 mmHg 88%
    07:00 +20°C° 0 mm 0 m/s 696 mmHg 85%
    08:00 +22°C° 0 mm 0 m/s 696 mmHg 78%
    09:00 +26°C° 0 mm 1 m/s 697 mmHg 70%
    10:00 +28°C° 0 mm 1 m/s 697 mmHg 63%
    11:00 +28°C° 0 mm 1 m/s 697 mmHg 60%
    12:00 +29°C° 0 mm 1 m/s 697 mmHg 57%
    13:00 +30°C° 0 mm 1 m/s 696 mmHg 54%
    14:00 +30°C° 0.1 mm 1 m/s 696 mmHg 54%
    15:00 +30°C° 0.1 mm 1 m/s 696 mmHg 54%
    16:00 +30°C° 0.1 mm 1 m/s 696 mmHg 54%
    17:00 +28°C° 0.3 mm 1 m/s 696 mmHg 63%
    18:00 +26°C° 0.3 mm 1 m/s 695 mmHg 72%
    19:00 +23°C° 0.3 mm 0 m/s 695 mmHg 81%
    20:00 +22°C° 0.5 mm 0 m/s 695 mmHg 84%
    21:00 +23°C° 0.5 mm 1 m/s 695 mmHg 86%
    22:00 +22°C° 0.5 mm 1 m/s 695 mmHg 89%
    23:00 +21°C° 0.7 mm 1 m/s 695 mmHg 90%
    Arată mai mult